When you browse on this site, cookies collect data to enhance your experience and personalize the content and advertising you see.
Visit our Privacy Policy to learn more. By continuing to use the site, you agree to this use of cookies and data.
  • In Spain
  • List of Countries
  • For 7 days
  • Water Temperature
  • Satellite Maps
  • Weather Map
  • Weather Widgets
  • user-avatar
    Login

    Hourly Weather Springfield

    Today, 16 June, Sunday

    Time Temperature Precipitation Wind Pressure Humidity
    00:00 +22°C° 0 mm 4 mps 739 mmHg 93%
    01:00 +21°C° 0.1 mm 4 mps 739 mmHg 94%
    02:00 +21°C° 0.1 mm 4 mps 738 mmHg 95%
    03:00 +21°C° 0.1 mm 3 mps 738 mmHg 96%
    04:00 +21°C° 0.3 mm 4 mps 739 mmHg 96%
    05:00 +21°C° 0.3 mm 4 mps 740 mmHg 96%
    06:00 +21°C° 0.3 mm 4 mps 740 mmHg 96%
    07:00 +22°C° 0 mm 4 mps 740 mmHg 91%
    08:00 +25°C° 0 mm 4 mps 740 mmHg 87%
    09:00 +26°C° 0 mm 3 mps 740 mmHg 82%
    10:00 +27°C° 0 mm 3 mps 740 mmHg 75%
    11:00 +28°C° 0 mm 3 mps 740 mmHg 68%
    12:00 +29°C° 0 mm 2 mps 741 mmHg 61%
    13:00 +30°C° 0 mm 2 mps 741 mmHg 62%
    14:00 +30°C° 0 mm 3 mps 741 mmHg 62%
    15:00 +30°C° 0 mm 3 mps 741 mmHg 62%
    16:00 +29°C° 0.1 mm 3 mps 741 mmHg 67%
    17:00 +28°C° 0.1 mm 3 mps 741 mmHg 72%
    18:00 +28°C° 0.1 mm 3 mps 741 mmHg 78%
    19:00 +26°C° 0.1 mm 3 mps 741 mmHg 83%
    20:00 +24°C° 0.1 mm 3 mps 741 mmHg 88%
    21:00 +22°C° 0.1 mm 4 mps 742 mmHg 94%
    22:00 +21°C° 0.4 mm 3 mps 742 mmHg 95%
    23:00 +20°C° 0.4 mm 3 mps 742 mmHg 96%

    Tomorrow, 17 June, Monday

    Time Temperature Precipitation Wind Pressure Humidity
    00:00 +20°C° 0.4 mm 3 mps 742 mmHg 97%
    01:00 +19°C° 0.4 mm 3 mps 742 mmHg 96%
    02:00 +19°C° 0.4 mm 3 mps 742 mmHg 95%
    03:00 +18°C° 0.4 mm 3 mps 742 mmHg 93%
    04:00 +18°C° 0.1 mm 3 mps 742 mmHg 93%
    05:00 +18°C° 0.1 mm 3 mps 743 mmHg 93%
    06:00 +17°C° 0.1 mm 3 mps 743 mmHg 93%
    07:00 +18°C° 0.6 mm 3 mps 743 mmHg 92%
    08:00 +19°C° 0.6 mm 3 mps 743 mmHg 91%
    09:00 +20°C° 0.6 mm 2 mps 743 mmHg 91%
    10:00 +20°C° 1.3 mm 3 mps 743 mmHg 92%
    11:00 +20°C° 1.3 mm 3 mps 743 mmHg 93%
    12:00 +21°C° 1.3 mm 3 mps 743 mmHg 94%
    13:00 +21°C° 0.3 mm 3 mps 743 mmHg 94%
    14:00 +21°C° 0.3 mm 3 mps 743 mmHg 94%
    15:00 +21°C° 0.3 mm 3 mps 742 mmHg 95%
    16:00 +20°C° 1.3 mm 3 mps 742 mmHg 95%
    17:00 +20°C° 1.3 mm 4 mps 742 mmHg 96%
    18:00 +20°C° 1.3 mm 4 mps 742 mmHg 97%
    19:00 +20°C° 2.6 mm 4 mps 742 mmHg 97%
    20:00 +20°C° 2.6 mm 4 mps 742 mmHg 98%
    21:00 +20°C° 2.6 mm 3 mps 743 mmHg 98%
    22:00 +19°C° 0.5 mm 3 mps 742 mmHg 97%
    23:00 +19°C° 0.5 mm 3 mps 742 mmHg 97%

    Day after tomorrow, 18 June, Tuesday

    Time Temperature Precipitation Wind Pressure Humidity
    00:00 +19°C° 0.5 mm 3 mps 742 mmHg 97%
    01:00 +19°C° 0 mm 3 mps 742 mmHg 97%
    02:00 +18°C° 0 mm 3 mps 742 mmHg 97%
    03:00 +18°C° 0 mm 3 mps 742 mmHg 96%
    04:00 +18°C° 0 mm 3 mps 742 mmHg 96%
    05:00 +18°C° 0 mm 3 mps 742 mmHg 95%
    06:00 +18°C° 0 mm 3 mps 743 mmHg 94%
    07:00 +19°C° 0 mm 3 mps 743 mmHg 90%
    08:00 +21°C° 0 mm 3 mps 743 mmHg 86%
    09:00 +22°C° 0 mm 3 mps 743 mmHg 81%
    10:00 +24°C° 0 mm 3 mps 743 mmHg 78%
    11:00 +25°C° 0 mm 3 mps 743 mmHg 74%
    12:00 +26°C° 0 mm 3 mps 743 mmHg 71%
    13:00 +27°C° 0 mm 3 mps 742 mmHg 71%
    14:00 +27°C° 0 mm 3 mps 742 mmHg 71%
    15:00 +27°C° 0 mm 3 mps 742 mmHg 70%
    16:00 +26°C° 0 mm 3 mps 742 mmHg 75%
    17:00 +26°C° 0 mm 2 mps 742 mmHg 79%
    18:00 +25°C° 0 mm 2 mps 742 mmHg 83%
    19:00 +24°C° 0 mm 2 mps 742 mmHg 85%
    20:00 +22°C° 0 mm 1 mps 742 mmHg 88%
    21:00 +21°C° 0 mm 1 mps 742 mmHg 91%
    22:00 +20°C° 0 mm 1 mps 741 mmHg 91%
    23:00 +20°C° 0 mm 1 mps 741 mmHg 92%

    19 June, Wednesday

    Time Temperature Precipitation Wind Pressure Humidity
    00:00 +20°C° 0 mm 1 mps 741 mmHg 92%
    01:00 +19°C° 0 mm 1 mps 741 mmHg 92%
    02:00 +19°C° 0 mm 1 mps 741 mmHg 93%
    03:00 +19°C° 0 mm 1 mps 741 mmHg 94%
    04:00 +20°C° 0 mm 1 mps 741 mmHg 93%
    05:00 +19°C° 0 mm 2 mps 740 mmHg 93%
    06:00 +20°C° 0 mm 2 mps 740 mmHg 93%
    07:00 +20°C° 1.6 mm 3 mps 740 mmHg 94%
    08:00 +21°C° 1.6 mm 3 mps 740 mmHg 94%
    09:00 +22°C° 1.6 mm 4 mps 740 mmHg 95%
    10:00 +22°C° 4.1 mm 4 mps 739 mmHg 95%
    11:00 +22°C° 4.1 mm 4 mps 739 mmHg 94%
    12:00 +22°C° 4.1 mm 4 mps 738 mmHg 94%
    13:00 +24°C° 0.5 mm 3 mps 738 mmHg 89%
    14:00 +25°C° 0.5 mm 3 mps 737 mmHg 85%
    15:00 +26°C° 0.5 mm 2 mps 737 mmHg 80%
    16:00 +26°C° 0 mm 2 mps 737 mmHg 81%
    17:00 +26°C° 0 mm 1 mps 737 mmHg 82%
    18:00 +26°C° 0 mm 1 mps 736 mmHg 83%
    19:00 +25°C° 1.8 mm 2 mps 736 mmHg 87%
    20:00 +22°C° 1.8 mm 3 mps 736 mmHg 91%
    21:00 +21°C° 1.8 mm 4 mps 735 mmHg 95%
    22:00 +21°C° 3 mm 4 mps 735 mmHg 95%
    23:00 +20°C° 3 mm 5 mps 734 mmHg 96%

    20 June, Thursday

    Time Temperature Precipitation Wind Pressure Humidity
    00:00 +20°C° 3 mm 5 mps 733 mmHg 96%
    01:00 +20°C° 0.6 mm 5 mps 733 mmHg 96%
    02:00 +20°C° 0.6 mm 5 mps 732 mmHg 97%
    03:00 +20°C° 0.6 mm 5 mps 732 mmHg 97%
    04:00 +20°C° 0.2 mm 4 mps 732 mmHg 96%
    05:00 +20°C° 0.2 mm 4 mps 732 mmHg 95%
    06:00 +20°C° 0.2 mm 3 mps 732 mmHg 94%
    07:00 +20°C° 1.6 mm 3 mps 732 mmHg 95%
    08:00 +20°C° 1.6 mm 3 mps 733 mmHg 96%
    09:00 +20°C° 1.6 mm 3 mps 733 mmHg 97%
    10:00 +20°C° 0.4 mm 4 mps 733 mmHg 96%
    11:00 +20°C° 0.4 mm 6 mps 733 mmHg 96%
    12:00 +20°C° 0.4 mm 8 mps 734 mmHg 95%
    13:00 +20°C° 0.1 mm 8 mps 734 mmHg 93%
    14:00 +20°C° 0.1 mm 7 mps 734 mmHg 92%
    15:00 +21°C° 0.1 mm 7 mps 735 mmHg 90%
    16:00 +21°C° 0 mm 6 mps 735 mmHg 89%
    17:00 +21°C° 0 mm 6 mps 736 mmHg 89%
    18:00 +21°C° 0 mm 5 mps 737 mmHg 88%
    19:00 +20°C° 0 mm 4 mps 737 mmHg 89%
    20:00 +20°C° 0 mm 4 mps 738 mmHg 90%
    21:00 +19°C° 0 mm 3 mps 739 mmHg 90%
    22:00 +18°C° 0 mm 3 mps 739 mmHg 92%
    23:00 +18°C° 0 mm 2 mps 739 mmHg 94%

    21 June, Friday

    Time Temperature Precipitation Wind Pressure Humidity
    00:00 +17°C° 0 mm 2 mps 740 mmHg 96%
    01:00 +16°C° 0 mm 2 mps 740 mmHg 96%
    02:00 +16°C° 0 mm 1 mps 740 mmHg 96%
    03:00 +16°C° 0 mm 1 mps 740 mmHg 96%
    04:00 +16°C° 0 mm 1 mps 741 mmHg 96%
    05:00 +18°C° 0 mm 1 mps 742 mmHg 95%
    06:00 +18°C° 0 mm 1 mps 742 mmHg 95%
    07:00 +20°C° 0 mm 1 mps 742 mmHg 90%
    08:00 +21°C° 0 mm 1 mps 743 mmHg 85%
    09:00 +21°C° 0 mm 0 mps 743 mmHg 81%
    10:00 +24°C° 0 mm 1 mps 743 mmHg 78%
    11:00 +25°C° 0 mm 1 mps 743 mmHg 75%
    12:00 +26°C° 0 mm 2 mps 743 mmHg 72%
    13:00 +27°C° 0 mm 2 mps 743 mmHg 71%
    14:00 +27°C° 0 mm 2 mps 743 mmHg 70%
    15:00 +28°C° 0 mm 2 mps 742 mmHg 68%
    16:00 +27°C° 0 mm 3 mps 742 mmHg 73%
    17:00 +27°C° 0 mm 3 mps 742 mmHg 77%
    18:00 +26°C° 0 mm 4 mps 742 mmHg 82%
    19:00 +25°C° 0.2 mm 4 mps 742 mmHg 83%
    20:00 +23°C° 0.2 mm 5 mps 742 mmHg 84%
    21:00 +23°C° 0.2 mm 6 mps 742 mmHg 85%
    22:00 +22°C° 4.1 mm 6 mps 742 mmHg 88%
    23:00 +22°C° 4.1 mm 6 mps 741 mmHg 91%
    Show more